Date String (YYYY-MM-DD hh:mm:ss) UTC,Instrument flags,Ambient pressure (hPa),Sample flow (lpm),Bypass flow (lpm),Sample temperature (°C),Ambient temperature (°C),ASC tube jacket temperature (°C),LED temperature (°C),Box temperature (°C),Sample RH (%),Span deviation,Mass concentration (μg/m³),Mass concentration (μg/m³),Mass concentration (μg/m³)
DateTimeUTC,F1_M11,P_M11,Q1_M11,Q2_M11,T1_M11,T2_M11,T3_M11,T4_M11,T5_M11,U1_M11,ZSPAN_M11,X2_M11,X0_M11,X1_M11
2023-03-08 15:00:00,,0827.5,5.00,0.00,22.6,21.1,00.0,31.4,24.4,16.8,-003.0,0011.61,0014.16,0011.26
2023-03-08 15:01:00,,0827.5,5.00,0.00,22.6,21.0,00.0,31.3,24.3,16.8,-003.1,0011.63,0014.14,0011.28
2023-03-08 15:02:00,,0827.4,4.99,0.00,22.6,20.9,00.0,31.3,24.3,16.8,-003.1,0011.62,0014.07,0011.29
2023-03-08 15:03:00,,0827.4,5.01,0.00,22.6,20.9,00.0,31.3,24.3,16.8,-003.0,0011.62,0014.05,0011.29
2023-03-08 15:04:00,,0827.4,5.00,0.00,22.6,20.8,00.0,31.3,24.2,16.8,-002.9,0011.63,0014.09,0011.29
2023-03-08 15:05:00,,0827.4,5.01,0.00,22.5,20.8,00.0,31.3,24.2,16.8,-002.8,0011.64,0014.13,0011.29
2023-03-08 15:06:00,,0827.4,5.00,0.00,22.5,20.8,00.0,31.3,24.2,16.9,-002.6,0011.69,0014.33,0011.30
2023-03-08 15:07:00,,0827.4,5.00,0.00,22.5,20.7,00.0,31.3,24.2,16.9,-002.5,0011.72,0014.48,0011.30
2023-03-08 15:08:00,,0827.4,5.00,0.00,22.5,20.7,00.0,31.3,24.2,16.9,-002.3,0011.70,0014.41,0011.30
2023-03-08 15:09:00,,0827.4,5.00,0.00,22.4,20.6,00.0,31.3,24.1,16.8,-002.3,0011.70,0014.45,0011.30
2023-03-08 15:10:00,,0827.4,5.00,0.00,22.4,20.6,00.0,31.2,24.1,16.8,-002.4,0011.69,0014.84,0011.28
2023-03-08 15:11:00,,0827.4,5.01,0.00,22.4,20.6,00.0,31.2,24.1,16.8,-002.6,0011.68,0015.01,0011.26
2023-03-08 15:12:00,,0827.4,5.00,0.00,22.4,20.7,00.0,31.2,24.1,16.8,-002.7,0011.66,0014.96,0011.25
2023-03-08 15:13:00,,0827.4,5.01,0.00,22.4,21.5,00.0,31.2,24.3,16.8,-002.6,0011.67,0015.00,0011.23
2023-03-08 15:14:00,,0827.4,5.04,0.00,22.6,22.6,00.0,31.2,24.5,16.8,-002.7,0011.65,0014.99,0011.22
2023-03-08 15:15:00,,0827.4,4.98,0.00,22.7,23.2,00.0,31.2,24.7,16.7,-002.6,0011.63,0015.16,0011.21
2023-03-08 15:16:00,,0827.4,5.02,0.00,22.7,22.8,00.0,31.3,24.7,16.7,-002.5,0011.64,0015.53,0011.23
2023-03-08 15:17:00,,0827.4,5.01,0.00,22.7,22.5,00.0,31.3,24.6,16.7,-002.6,0011.60,0015.37,0011.22
2023-03-08 15:18:00,,0827.3,5.01,0.00,22.7,22.1,00.0,31.3,24.5,16.7,-002.6,0011.58,0015.24,0011.23
2023-03-08 15:19:00,,0827.3,5.01,0.00,22.7,21.8,00.0,31.3,24.5,16.6,-002.9,0011.57,0015.21,0011.23
2023-03-08 15:20:00,,0827.3,5.00,0.00,22.7,21.6,00.0,31.3,24.4,16.6,-003.0,0011.57,0015.18,0011.25
2023-03-08 15:21:00,,0827.3,5.00,0.00,22.7,21.4,00.0,31.3,24.4,16.6,-002.9,0011.63,0015.08,0011.28
2023-03-08 15:22:00,,0827.2,4.99,0.00,22.7,21.3,00.0,31.3,24.4,16.6,-002.8,0011.66,0015.38,0011.32
2023-03-08 15:23:00,,0827.2,5.00,0.00,22.7,21.2,00.0,31.3,24.4,16.6,-002.8,0011.71,0015.52,0011.35
2023-03-08 15:24:00,,0827.4,5.00,0.00,22.6,21.1,00.0,31.3,24.4,16.5,-002.8,0011.76,0015.63,0011.39
2023-03-08 15:25:00,,0827.3,5.00,0.00,22.6,21.1,00.0,31.3,24.4,16.5,-002.8,0011.81,0015.82,0011.41
2023-03-08 15:26:00,,0827.3,4.99,0.00,22.6,21.0,00.0,31.3,24.4,16.6,-003.0,0011.81,0015.79,0011.41
2023-03-08 15:27:00,,0827.3,5.01,0.00,22.6,21.0,00.0,31.3,24.4,16.6,-003.1,0011.77,0015.23,0011.39
2023-03-08 15:28:00,,0827.2,5.01,0.00,22.6,20.9,00.0,31.3,24.3,16.5,-003.1,0011.76,0015.22,0011.39
2023-03-08 15:29:00,,0827.2,5.00,0.00,22.6,20.8,00.0,31.3,24.3,16.5,-003.0,0011.73,0015.16,0011.37
2023-03-08 15:30:00,,0827.2,5.00,0.00,22.6,20.8,00.0,31.3,24.2,16.5,-002.8,0011.75,0015.19,0011.37
2023-03-08 15:31:00,,0827.3,5.01,0.00,22.5,20.8,00.0,31.3,24.2,16.4,-002.9,0011.78,0015.25,0011.38
2023-03-08 15:32:00,,0827.3,5.00,0.00,22.5,20.8,00.0,31.3,24.2,16.4,-003.1,0011.74,0015.17,0011.37
2023-03-08 15:33:00,,0827.2,5.00,0.00,22.5,20.8,00.0,31.3,24.2,16.5,-003.0,0011.72,0014.54,0011.35
2023-03-08 15:34:00,,0827.2,5.00,0.00,22.5,20.7,00.0,31.3,24.2,16.5,-002.9,0011.71,0014.45,0011.33
2023-03-08 15:35:00,,0827.2,5.00,0.00,22.5,20.7,00.0,31.3,24.2,16.5,-003.0,0011.66,0014.92,0011.31
2023-03-08 15:36:00,,0827.2,5.00,0.00,22.5,20.7,00.0,31.3,24.2,16.5,-003.0,0011.57,0015.05,0011.26
2023-03-08 15:37:00,,0827.2,5.01,0.00,22.5,20.7,00.0,31.2,24.2,16.5,-002.9,0011.56,0014.96,0011.25
2023-03-08 15:38:00,,0827.2,5.00,0.00,22.4,20.7,00.0,31.2,24.2,16.5,-002.8,0011.59,0015.00,0011.26
2023-03-08 15:39:00,,0827.2,5.00,0.00,22.4,20.7,00.0,31.2,24.2,16.5,-002.6,0011.60,0015.07,0011.27
2023-03-08 15:40:00,,0827.2,5.00,0.00,22.5,21.4,00.0,31.2,24.3,16.5,-002.5,0011.64,0015.15,0011.28
2023-03-08 15:41:00,,0827.2,4.96,0.00,22.6,22.5,00.0,31.2,24.5,16.5,-002.4,0011.63,0015.29,0011.25
2023-03-08 15:42:00,,0827.2,5.00,0.00,22.7,23.3,00.0,31.2,24.8,16.4,-002.2,0011.64,0015.38,0011.26
2023-03-08 15:43:00,,0827.2,5.03,0.00,22.8,23.0,00.0,31.3,24.7,16.3,-002.0,0011.66,0015.59,0011.25
2023-03-08 15:44:00,,0827.2,4.99,0.00,22.8,22.6,00.0,31.3,24.7,16.3,-002.0,0011.68,0015.65,0011.24
2023-03-08 15:45:00,,0827.2,5.00,0.00,22.8,22.3,00.0,31.3,24.6,16.3,-002.0,0011.64,0015.65,0011.22
2023-03-08 15:46:00,,0827.2,5.01,0.00,22.8,22.0,00.0,31.4,24.6,16.3,-001.9,0011.64,0015.20,0011.23
2023-03-08 15:47:00,,0827.2,5.00,0.00,22.7,21.8,00.0,31.4,24.5,16.3,-001.8,0011.66,0014.64,0011.25
2023-03-08 15:48:00,,0827.1,5.00,0.00,22.7,21.6,00.0,31.4,24.5,16.3,-001.8,0011.69,0014.71,0011.28
2023-03-08 15:49:00,,0827.2,5.00,0.00,22.7,21.5,00.0,31.4,24.5,16.2,-001.6,0011.68,0014.67,0011.26
2023-03-08 15:50:00,,0827.2,5.00,0.00,22.7,21.4,00.0,31.4,24.5,16.2,-001.6,0011.67,0014.62,0011.23
2023-03-08 15:51:00,,0827.1,5.01,0.00,22.7,21.3,00.0,31.4,24.5,16.2,-001.6,0011.67,0014.58,0011.24
2023-03-08 15:52:00,,0827.1,5.00,0.00,22.7,21.2,00.0,31.4,24.4,16.1,-001.6,0011.66,0014.47,0011.27
2023-03-08 15:53:00,,0827.2,5.00,0.00,22.7,21.2,00.0,31.4,24.4,16.1,-001.3,0011.64,0015.19,0011.27
2023-03-08 15:54:00,,0827.2,5.01,0.00,22.7,21.1,00.0,31.4,24.4,16.1,-001.2,0011.57,0014.98,0011.23
2023-03-08 15:55:00,,0827.2,5.00,0.00,22.7,21.0,00.0,31.4,24.4,16.1,-001.0,0011.52,0014.93,0011.23
2023-03-08 15:56:00,,0827.1,5.01,0.00,22.7,21.0,00.0,31.4,24.4,16.1,-001.2,0011.55,0015.10,0011.22
2023-03-08 15:57:00,,0827.1,5.00,0.00,22.6,21.0,00.0,31.4,24.4,16.1,-001.2,0011.54,0015.22,0011.19
2023-03-08 15:58:00,,0827.0,5.01,0.00,22.6,21.0,00.0,31.4,24.3,16.1,-001.1,0011.56,0015.31,0011.17
2023-03-08 15:59:00,,0827.3,4.99,0.00,22.6,20.9,00.0,31.4,24.3,16.1,-001.1,0011.52,0015.25,0011.14
